Overview Statistics Trail Chart Weather Telemetry Raw packets
 

This is the latest recevied weather packets stored in our database for station/object SV9TNF-52. If no packets are shown the sender has not sent any weather packets the latest 10 day(s).

<< 70 71 72 73 74 75 76 >>
Time Temp. Humidity Pressure Rain* Wind** Luminosity Snow
1788184070 31.67° C 54% 1020 hPa 0 mm 3.13 m/s, 32° - -
1788183769 31.67° C 55% 1020 hPa 0 mm 4.02 m/s, 350° - -
1788183469 31.11° C 57% 1020 hPa 0 mm 4.47 m/s, 289° - -
1788183170 30° C 59% 1020 hPa 0 mm 7.15 m/s, 342° - -
1788182869 31.11° C 59% 1020 hPa 0 mm 6.26 m/s, 9° - -
1788182569 31.67° C 56% 1020 hPa 0 mm 4.02 m/s, 247° - -
1788182269 31.67° C 57% 1020 hPa 0 mm 3.13 m/s, 244° - -
1788181969 31.67° C 54% 1020 hPa 0 mm 4.92 m/s, 299° - -
1788181669 31.67° C 55% 1020 hPa 0 mm 5.36 m/s, 247° - -
1788181368 32.22° C 55% 1020 hPa 0 mm 4.92 m/s, 242° - -
1788181068 32.22° C 55% 1020 hPa 0 mm 3.58 m/s, 349° - -
1788180768 32.22° C 54% 1020 hPa 0 mm 4.92 m/s, 287° - -
1788180469 31.67° C 55% 1020 hPa 0 mm 4.92 m/s, 267° - -
1788180168 32.22° C 56% 1020 hPa 0 mm 4.47 m/s, 263° - -
1788179868 32.22° C 55% 1020 hPa 0 mm 4.02 m/s, 272° - -
1788179568 32.22° C 54% 1020 hPa 0 mm 4.92 m/s, 243° - -
1788179268 32.22° C 54% 1020 hPa 0 mm 4.47 m/s, 230° - -
1788178968 32.22° C 56% 1020 hPa 0 mm 4.02 m/s, 336° - -
1788178667 31.67° C 55% 1020 hPa 0 mm 6.71 m/s, 302° - -
1788178367 32.22° C 54% 1020 hPa 0 mm 5.81 m/s, 207° - -
1788178067 32.22° C 54% 1020 hPa 0 mm 4.02 m/s, 335° - -
1788177767 32.22° C 53% 1020 hPa 0 mm 4.02 m/s, 228° - -
1788177467 32.78° C 54% 1020.3 hPa 0 mm 3.13 m/s, 266° - -
1788177167 32.78° C 53% 1020.3 hPa 0 mm 5.36 m/s, 277° - -
1788176867 33.33° C 52% 1020.3 hPa 0 mm 4.02 m/s, 349° - -

* Rain latest hour (hover to see other rain measurements)
** Current wind speed in m/s (hover to see current wind gust speed)